This is the latest recevied weather packets stored in our database for station/object W4SNA-3. If no packets are shown the sender has not sent any weather packets the latest 10 day(s).
| Time | Temp. | Humidity | Pressure | Rain* | Wind** | Luminosity | Snow |
|---|---|---|---|---|---|---|---|
| 1777844985 | 13.33° C | 34% | 1013.5 hPa | 0 mm | - | - | - |
| 1777844685 | 13.89° C | 35% | 1013.6 hPa | 0 mm | - | - | - |
| 1777844387 | 13.89° C | 31% | 1013.6 hPa | 0 mm | - | - | - |
| 1777844085 | 13.89° C | 34% | 1013.7 hPa | 0 mm | - | - | - |
| 1777843789 | 13.89° C | 31% | 1013.7 hPa | 0 mm | - | - | - |
| 1777843485 | 14.44° C | 33% | 1013.7 hPa | 0 mm | - | - | - |
| 1777843184 | 14.44° C | 34% | 1013.7 hPa | 0 mm | - | - | - |
| 1777842884 | 14.44° C | 35% | 1013.7 hPa | 0 mm | - | - | - |
| 1777842585 | 15° C | 33% | 1013.8 hPa | 0 mm | - | - | - |
| 1777842286 | 15° C | 31% | 1013.8 hPa | 0 mm | - | - | - |
| 1777841984 | 15° C | 30% | 1013.9 hPa | 0 mm | - | - | - |
| 1777841685 | 15.56° C | 30% | 1013.9 hPa | 0 mm | - | - | - |
| 1777841412 | 15.56° C | 29% | 1013.8 hPa | 0 mm | - | - | - |
| 1777841085 | 15.56° C | 30% | 1014 hPa | 0 mm | - | - | - |
| 1777840744 | 15.56° C | 29% | 1014 hPa | 0 mm | - | - | - |
| 1777840444 | 15.56° C | 29% | 1014.1 hPa | 0 mm | - | - | - |
| 1777840144 | 15.56° C | 30% | 1014.1 hPa | 0 mm | - | - | - |
| 1777839844 | 15.56° C | 32% | 1014 hPa | 0 mm | - | - | - |
| 1777839425 | 15.56° C | 31% | 1014.2 hPa | 0 mm | - | - | - |
| 1777839126 | 15.56° C | 31% | 1014.2 hPa | 0 mm | - | - | - |
| 1777838826 | 16.11° C | 30% | 1014.4 hPa | 0 mm | - | - | - |
| 1777838325 | 15.56° C | 31% | 1014.4 hPa | 0 mm | - | - | - |
| 1777838057 | 15.56° C | 29% | 1014.5 hPa | 0 mm | - | - | - |
| 1777837721 | 15.56° C | 29% | 1014.5 hPa | 0 mm | - | - | - |
| 1777837421 | 15° C | 29% | 1014.6 hPa | 0 mm | - | - | - |
* Rain latest hour (hover to see other rain measurements)
** Current wind speed in m/s (hover to see current wind gust speed)